N2XGL-1 Weather Reports


time (UTC)temp
C
wind
direction
speed
KPH
gust
KPH
rain 1hr
cm
rain 24hr
cm
rain mn
cm
humidity
%
barometer
mb
20260505152108 1 0 1.6 6.4 0.13 0.99 0.00 93 1010.2
20260505151213 1 338 1.6 4.8 0.13 0.97 0.00 93 1010.3
20260505150213 1 338 1.6 4.8 0.15 0.97 0.00 94 1010.1
20260505140118 1 0 3.2 6.4 0.13 0.81 0.00 93 1009.9
20260505123333 1 338 1.6 4.8 0.10 0.66 0.00 92 1008.9
20260505122358 1 0 3.2 8.0 0.13 0.66 0.00 93 1008.8
20260505120601 1 338 3.2 6.4 0.13 0.64 0.00 92 1008.7
20260505115709 1 0 6.4 11.3 0.13 0.61 0.00 92 1008.7
20260505114029 1 22 4.8 9.7 0.13 0.58 0.00 92 1008.4
20260505113123 1 22 4.8 11.3 0.10 0.56 0.00 92 1008.2
20260505112508 1 0 4.8 9.7 0.10 0.53 0.00 91 1008.1
20260505112227 1 0 4.8 9.7 0.10 0.53 0.00 91 1008.1
20260505111418 1 0 4.8 16.1 0.10 0.51 0.00 91 1007.9
20260505101748 3 0 9.7 22.5 0.08 0.41 0.00 91 1007.5
20260505100801 3 0 11.3 20.9 0.05 0.38 0.00 90 1007.1
20260505095941 5 0 9.7 24.1 0.03 0.36 0.00 92 1006.9
20260505095058 5 0 9.7 29.0 0.03 0.36 0.00 92 1006.7
20260505094118 5 0 9.7 22.5 0.03 0.36 0.00 91 1006.6
20260505092428 5 0 6.4 14.5 0.05 0.33 0.00 92 1006.3
20260505090609 5 0 11.3 19.3 0.08 0.33 0.00 91 1006.1
20260505085648 5 0 8.0 20.9 0.10 0.33 0.00 91 1006.2
20260505083758 6 0 11.3 25.7 0.08 0.30 0.00 90 1006.0
20260505082914 6 0 11.3 24.1 0.08 0.30 0.00 90 1005.8
20260505081836 6 0 9.7 22.5 0.03 0.25 0.00 89 1005.7
20260505081133 6 0 9.7 22.5 0.03 0.25 0.00 89 1005.7
20260505080143 6 0 12.9 25.7 0.00 0.23 0.00 88 1005.5
20260505075158 6 0 12.9 22.5 0.00 0.23 0.00 88 1005.7
20260505074333 6 0 11.3 25.7 0.00 0.23 0.00 87 1005.5
20260505073523 6 0 8.0 22.5 0.00 0.23 0.00 87 1005.7
20260505072628 6 0 12.9 27.4 0.00 0.23 0.00 86 1005.5
20260505071723 7 0 12.9 25.7 0.00 0.23 0.00 86 1005.6
20260505070841 7 0 11.3 25.7 0.00 0.23 0.00 86 1005.5
20260505070008 7 0 11.3 25.7 0.00 0.23 0.00 85 1005.5
20260505065043 7 0 11.3 22.5 0.00 0.23 0.00 86 1005.4
20260505064511 8 0 12.9 25.7 0.00 0.23 0.00 89 1005.2
20260505064233 8 0 12.9 25.7 0.00 0.23 0.00 89 1005.2
20260505063238 8 0 0.0 1.6 0.00 0.23 0.00 91 1004.8
20260505062510 8 0 0.0 0.0 0.00 0.23 0.00 91 1004.6
20260505062358 8 0 0.0 0.0 0.00 0.23 0.00 91 1004.6
20260505060438 7 0 0.0 1.6 0.00 0.23 0.00 90 1004.6
20260505055618 7 202 1.6 3.2 0.00 0.23 0.00 90 1004.6
20260505053911 7 0 0.0 1.6 0.00 0.23 0.00 90 1004.3
20260505052932 7 0 0.0 1.6 0.00 0.23 0.00 90 1004.2
20260505052033 8 0 0.0 1.6 0.00 0.23 0.00 90 1004.1
20260505051103 8 0 0.0 3.2 0.00 0.23 0.00 89 1004.0
20260505050143 8 180 1.6 3.2 0.00 0.23 0.00 89 1004.0
20260505041733 8 180 3.2 6.4 0.03 0.23 0.00 88 1004.1
20260505035853 9 202 3.2 9.7 0.08 0.23 0.00 87 1003.8
20260505035048 9 180 4.8 8.0 0.08 0.23 0.00 87 1003.8
20260505034244 9 225 3.2 6.4 0.10 0.23 0.00 87 1003.7
20260505033308 10 225 3.2 4.8 0.13 0.23 0.00 86 1003.8
20260505032314 10 180 3.2 8.0 0.13 0.23 0.00 86 1003.6
20260505031453 10 180 6.4 17.7 0.08 0.18 0.00 84 1003.3
20260505030453 10 202 4.8 9.7 0.05 0.15 0.00 83 1003.1
20260505025601 10 225 4.8 9.7 0.05 0.15 0.00 82 1003.1
20260505024648 10 248 8.0 16.1 0.03 0.13 0.00 80 1002.9
20260505022813 10 270 4.8 9.7 0.00 0.10 0.00 75 1002.8
20260505021933 10 270 6.4 9.7 0.00 0.10 0.00 74 1002.7
20260505021044 10 270 4.8 9.7 0.00 0.10 0.00 74 1002.6
20260505020108 10 292 4.8 11.3 0.00 0.10 0.00 74 1002.6
20260505015253 10 270 4.8 8.0 0.00 0.10 0.00 74 1002.6
20260505014321 11 270 4.8 12.9 0.00 0.10 0.00 74 1002.4
20260505012518 11 315 8.0 19.3 0.00 0.10 0.00 72 1002.3
20260505011601 11 315 6.4 20.9 0.00 0.10 0.00 71 1002.2
20260505004808 13 315 9.7 24.1 0.00 0.10 0.00 63 1002.1
20260505004033 13 0 9.7 20.9 0.00 0.10 0.00 63 1002.0
20260505003948 13 0 9.7 20.9 0.00 0.10 0.00 63 1002.0
20260505002948 13 338 3.2 8.0 0.00 0.10 0.00 65 1001.8
20260505001018 13 270 1.6 6.4 0.00 0.10 0.00 75 1001.5
20260504234238 13 202 1.6 3.2 0.08 0.10 0.00 76 1001.2
20260504233322 13 22 3.2 8.0 0.08 0.10 0.00 76 1000.9
20260504232344 13 0 3.2 4.8 0.08 0.10 0.00 75 1001.2
20260504231438 13 0 3.2 6.4 0.08 0.10 0.00 74 1001.5
20260504230608 14 270 4.8 9.7 0.08 0.10 0.00 68 1001.4
20260504230521 14 270 4.8 9.7 0.08 0.10 0.00 68 1001.4
20260504224748 16 292 9.7 22.5 0.00 0.03 0.00 54 1001.1
20260504223928 16 315 3.2 8.0 0.00 0.03 0.00 45 1000.8
20260504223003 16 0 6.4 11.3 0.00 0.03 0.00 43 1000.4
20260504222044 16 22 6.4 11.3 0.00 0.03 0.00 43 1000.3
20260504221112 16 0 6.4 16.1 0.00 0.03 0.00 44 1000.0
20260504220513 16 45 11.3 25.7 0.00 0.03 0.00 43 999.4
20260504220245 16 45 11.3 25.7 0.00 0.03 0.00 43 999.4
20260504215401 16 68 11.3 25.7 0.00 0.03 0.00 46 999.4
20260504214458 16 45 9.7 22.5 0.03 0.03 0.00 47 999.9
20260504213638 16 68 9.7 19.3 0.03 0.03 0.00 48 1000.1
20260504212839 15 68 4.8 11.3 0.03 0.03 0.00 50 1000.6
20260504212009 15 68 4.8 11.3 0.03 0.03 0.00 56 1001.1
20260504211802 15 0 11.3 27.4 0.03 0.03 0.00 50 1001.1
20260504210221 15 0 11.3 27.4 0.03 0.03 0.00 50 1001.1
20260504205318 16 0 9.7 24.1 0.03 0.03 0.00 50 1000.7
20260504204441 17 0 12.9 27.4 0.00 0.00 0.00 38 1000.3
20260504202653 18 0 17.7 35.4 0.00 0.00 0.00 34 999.4
20260504201731 19 0 20.9 41.8 0.00 0.00 0.00 31 999.0
20260504200748 21 0 12.9 27.4 0.00 0.00 0.00 26 998.6
20260504195838 22 0 9.7 22.5 0.00 0.00 0.00 26 998.6
20260504194858 23 315 6.4 16.1 0.00 0.00 0.00 26 998.6
20260504193948 23 292 6.4 19.3 0.00 0.00 0.00 28 998.8
20260504193254 25 315 9.7 22.5 0.00 0.00 0.00 25 998.7
20260504193148 25 315 9.7 22.5 0.00 0.00 0.00 25 998.7
20260504192313 25 315 12.9 25.7 0.00 0.00 0.00 26 998.7
20260504191424 24 270 12.9 25.7 0.00 0.00 0.00 24 998.7
20260504190613 24 270 16.1 29.0 0.00 0.00 0.00 25 998.8
20260504185808 24 270 19.3 29.0 0.00 0.00 0.00 24 999.0
20260504184828 24 270 14.5 24.1 0.00 0.00 0.00 26 998.8
20260504183918 24 270 17.7 27.4 0.00 0.00 0.00 26 999.1
20260504183049 23 270 19.3 32.2 0.00 0.00 0.00 27 999.2
20260504181158 21 248 17.7 29.0 0.00 0.00 0.00 28 999.6
20260504180401 21 270 14.5 24.1 0.00 0.00 0.00 30 999.6
20260504175512 20 248 19.3 30.6 0.00 0.00 0.00 31 999.8
20260504175403 20 248 19.3 30.6 0.00 0.00 0.00 31 999.8
20260504174744 20 248 16.1 25.7 0.00 0.00 0.00 32 999.9
20260504174548 20 248 16.1 25.7 0.00 0.00 0.00 32 999.9
20260504173653 19 248 4.8 9.7 0.00 0.00 0.00 36 1000.1
20260504172721 18 158 4.8 11.3 0.00 0.00 0.00 35 1000.0
20260504171743 18 158 3.2 8.0 0.00 0.00 0.00 40 1000.3
20260504170921 18 158 4.8 9.7 0.00 0.00 0.00 36 1000.3